Location: Rancho Penasquitos
(32.9595°N, 117.1153°W)
Time: 01:24:53
(UTC+00:00)

SWIFT - Pass Details

Date: 29 June 2022
Orbit: 539 x 553 km, 20.6° (Epoch: 07 August)

Event Time Altitude Azimuth Distance (km) Brightness Sun altitude
Exits shadow 12:03:55 - 217° (SW) 1,890 4.5 -7.8°
Reaches altitude 10° 12:04:41 10° 207° (SSW) 1,779 4.4 -7.7°
Maximum altitude 12:05:53 11° 190° (S) 1,711 4.4 -7.5°
Drops below altitude 10° 12:07:06 10° 173° (S) 1,779 4.7 -7.3°
Sets 12:10:57 0° 137° (SE) 2,671 6.0 -6.6°
